Weather reports worldwide

Advertisment
South Newington, United Kingdom (99166): temperature & dewpoint: 23.06.2017 10:00:00 - 29.06.2017 10:00:00 (BST)South Newington, United Kingdom (99166): temperature -20cm & temperature -100cm: 23.06.2017 10:00:00 - 29.06.2017 10:00:00 (BST)South Newington, United Kingdom (99166): wind speed: 23.06.2017 10:00:00 - 29.06.2017 10:00:00 (BST)South Newington, United Kingdom (99166): wind direction: 23.06.2017 10:00:00 - 29.06.2017 10:00:00 (BST)South Newington, United Kingdom (99166): visibility: 23.06.2017 10:00:00 - 29.06.2017 10:00:00 (BST)South Newington, United Kingdom (99166): precipitation: 23.06.2017 10:00:00 - 29.06.2017 10:00:00 (BST)
Date & Time tt [°C] td [°C] tt -20cm [°C] tt -100cm [°C] ff [km/h] ff [kn] dd vv [km] rr [mm]
29.06.2017 10:00:00 - - - - - - - - -
29.06.2017 09:00:00 11,4 10,3 - - - - - - 0,0
29.06.2017 08:00:00 10,8 10,2 - - - - - - 0,0
29.06.2017 07:00:00 10,1 9,4 - - - - - - 0,0
29.06.2017 06:00:00 10,1 9,0 - - - - - - 0,0
29.06.2017 05:00:00 10,2 8,9 - - - - - - 0,0
29.06.2017 04:00:00 10,3 8,8 - - - - - - 0,0
29.06.2017 03:00:00 10,8 9,0 - - - - - - 0,0
29.06.2017 02:00:00 10,9 9,2 - - - - - - 0,0
29.06.2017 01:00:00 11,1 8,9 - - - - - - 0,0
29.06.2017 00:00:00 11,3 9,1 - - - - - - 0,0
28.06.2017 23:00:00 11,6 9,5 - - - - - - 0,0
28.06.2017 22:00:00 11,6 9,3 - - - - - - 0,0
28.06.2017 21:00:00 12,4 10,0 - - - - - - 0,0
28.06.2017 20:00:00 13,0 10,6 - - - - - - 0,0
28.06.2017 19:00:00 13,3 10,9 - - - - - - 0,0
28.06.2017 18:00:00 13,9 11,2 - - - - - - 0,0
28.06.2017 17:00:00 14,0 11,5 - - - - - - 0,0
28.06.2017 16:00:00 14,3 11,7 - - - - - - 0,0
28.06.2017 15:00:00 14,3 12,2 - - - - - - 0,0
28.06.2017 14:00:00 14,1 12,4 - - - - - - 0,0
28.06.2017 13:00:00 14,4 13,1 - - - - - - 0,0
28.06.2017 12:00:00 14,4 13,3 - - - - - - 0,0
28.06.2017 11:00:00 14,5 13,9 - - - - - - 0,4
28.06.2017 10:00:00 14,3 13,3 19,2 15,7 184 99 N 3,1 0,0
28.06.2017 09:00:00 14,4 13,2 - - - - - - 0,0
28.06.2017 08:00:00 14,5 13,8 - - - - - - 0,0
28.06.2017 07:00:00 13,9 13,5 - - - - - - 0,0
28.06.2017 06:00:00 13,5 13,1 - - - - - - 0,0
28.06.2017 05:00:00 13,3 12,9 - - - - - - 0,0
28.06.2017 04:00:00 13,3 12,8 - - - - - - 0,2
28.06.2017 03:00:00 13,3 12,8 - - - - - - 0,8
28.06.2017 02:00:00 13,5 13,0 - - - - - - 1,4
28.06.2017 01:00:00 13,7 13,2 - - - - - - 1,2
28.06.2017 00:00:00 14,0 13,4 - - - - - - 1,4
27.06.2017 23:00:00 14,4 13,6 - - - - - - 0,4
27.06.2017 22:00:00 14,8 13,6 - - - - - - 0,0
27.06.2017 21:00:00 15,3 13,7 - - - - - - 0,0
27.06.2017 20:00:00 16,0 14,0 - - - - - - 0,0
27.06.2017 19:00:00 16,6 14,2 - - - - - - 0,0
27.06.2017 18:00:00 17,4 14,3 - - - - - - 0,0
27.06.2017 17:00:00 17,4 14,2 - - - - - - 0,0
27.06.2017 16:00:00 18,0 13,7 - - - - - - 0,0
27.06.2017 15:00:00 17,4 12,9 - - - - - - 0,0
27.06.2017 14:00:00 18,1 12,7 - - - - - - 0,0
27.06.2017 13:00:00 18,3 13,0 - - - - - - 0,0
27.06.2017 12:00:00 18,0 11,3 - - - - - - 0,0
27.06.2017 11:00:00 17,3 10,8 - - - - - - 0,0
27.06.2017 10:00:00 18,3 11,2 19,5 15,7 - - N 1,6 0,0
27.06.2017 09:00:00 15,8 11,5 - - - - - - 0,0
27.06.2017 08:00:00 14,1 11,9 - - - - - - 0,0
27.06.2017 07:00:00 12,9 10,6 - - - - - - 0,4
27.06.2017 06:00:00 13,2 9,6 - - - - - - 0,0
27.06.2017 05:00:00 13,1 9,4 - - - - - - 0,0
27.06.2017 04:00:00 13,8 9,0 - - - - - - 0,0
27.06.2017 03:00:00 14,2 9,0 - - - - - - 0,0
27.06.2017 02:00:00 14,3 9,0 - - - - - - 0,0
27.06.2017 01:00:00 15,2 9,3 - - - - - - 0,0
27.06.2017 00:00:00 16,3 9,4 - - - - - - 0,0
26.06.2017 23:00:00 16,7 9,4 - - - - - - 0,0
26.06.2017 22:00:00 17,2 9,5 - - - - - - 0,0
26.06.2017 21:00:00 18,1 9,5 - - - - - - 0,0
26.06.2017 20:00:00 18,8 8,9 - - - - - - 0,0
26.06.2017 19:00:00 19,9 8,8 - - - - - - 0,0
26.06.2017 18:00:00 19,9 7,8 - - - - - - 0,0
26.06.2017 17:00:00 20,1 9,2 - - - - - - 0,0
26.06.2017 16:00:00 19,9 8,4 - - - - - - 0,0
26.06.2017 15:00:00 19,6 8,5 - - - - - - 0,0
26.06.2017 14:00:00 18,7 7,8 - - - - - - 0,0
26.06.2017 13:00:00 18,9 7,5 - - - - - - 0,0
26.06.2017 12:00:00 18,0 8,4 - - - - - - 0,0
26.06.2017 11:00:00 17,0 7,4 - - - - - - 0,0
26.06.2017 10:00:00 16,9 9,9 19,2 15,7 14 8 N 3,1 0,0
26.06.2017 09:00:00 15,4 8,7 - - - - - - 0,0
26.06.2017 08:00:00 13,6 9,1 - - - - - - 0,0
26.06.2017 07:00:00 10,4 10,3 - - - - - - 0,0
26.06.2017 06:00:00 8,2 8,1 - - - - - - 0,0
26.06.2017 05:00:00 6,7 6,3 - - - - - - 0,0
26.06.2017 04:00:00 7,1 6,6 - - - - - - 0,0
26.06.2017 03:00:00 7,4 6,7 - - - - - - 0,0
26.06.2017 02:00:00 8,4 7,4 - - - - - - 0,0
26.06.2017 01:00:00 9,9 8,1 - - - - - - 0,0
26.06.2017 00:00:00 12,4 9,7 - - - - - - 0,0
25.06.2017 23:00:00 13,2 10,1 - - - - - - 0,0
25.06.2017 22:00:00 14,3 11,5 - - - - - - 0,0
25.06.2017 21:00:00 15,2 11,6 - - - - - - 0,0
25.06.2017 20:00:00 16,1 12,2 - - - - - - 0,0
25.06.2017 19:00:00 17,8 12,8 - - - - - - 0,0
25.06.2017 18:00:00 18,1 13,3 - - - - - - 0,0
25.06.2017 17:00:00 18,1 12,7 - - - - - - 0,0
25.06.2017 16:00:00 18,3 12,8 - - - - - - 0,0
25.06.2017 15:00:00 18,7 11,9 - - - - - - 0,0
25.06.2017 14:00:00 19,6 12,5 - - - - - - 0,0
25.06.2017 13:00:00 19,1 13,3 - - - - - - 0,0
25.06.2017 12:00:00 19,0 13,9 - - - - - - 0,0
25.06.2017 11:00:00 18,6 13,3 - - - - - - 0,0
25.06.2017 10:00:00 17,4 12,7 19,7 15,7 - - N 0,4 0,0
25.06.2017 09:00:00 16,8 12,1 - - - - - - 0,0
25.06.2017 08:00:00 16,0 12,6 - - - - - - 0,0
25.06.2017 07:00:00 15,1 12,4 - - - - - - 0,0
25.06.2017 06:00:00 14,6 12,4 - - - - - - 0,0
25.06.2017 05:00:00 13,6 11,9 - - - - - - 0,0
25.06.2017 04:00:00 13,9 12,1 - - - - - - 0,0
25.06.2017 03:00:00 13,5 11,9 - - - - - - 0,0
25.06.2017 02:00:00 13,1 11,7 - - - - - - 0,0
25.06.2017 01:00:00 12,9 11,3 - - - - - - 0,0
25.06.2017 00:00:00 13,7 11,7 - - - - - - 0,0
24.06.2017 23:00:00 14,4 12,0 - - - - - - 0,0
24.06.2017 22:00:00 15,8 12,4 - - - - - - 0,0
24.06.2017 21:00:00 17,4 12,7 - - - - - - 0,0
24.06.2017 20:00:00 19,1 12,9 - - - - - - 0,0
24.06.2017 19:00:00 20,5 13,4 - - - - - - 0,0
24.06.2017 18:00:00 20,9 13,2 - - - - - - 0,0
24.06.2017 17:00:00 21,5 13,1 - - - - - - 0,0
24.06.2017 16:00:00 22,5 14,0 - - - - - - 0,0
24.06.2017 15:00:00 22,1 14,2 - - - - - - 0,0
24.06.2017 14:00:00 22,0 14,9 - - - - - - 0,0
24.06.2017 13:00:00 21,6 14,5 - - - - - - 0,0
24.06.2017 12:00:00 20,1 13,4 - - - - - - 0,0
24.06.2017 11:00:00 20,5 14,1 - - - - - - 0,0
24.06.2017 10:00:00 20,0 14,3 19,7 15,7 124 67 N 4,7 0,0
24.06.2017 09:00:00 18,1 13,1 - - - - - - 0,0
24.06.2017 08:00:00 17,5 13,9 - - - - - - 0,0
24.06.2017 07:00:00 16,3 13,7 - - - - - - 0,0
24.06.2017 06:00:00 16,1 14,0 - - - - - - 0,0
24.06.2017 05:00:00 16,0 14,0 - - - - - - 0,0
24.06.2017 04:00:00 16,4 14,2 - - - - - - 0,0
24.06.2017 03:00:00 16,2 14,1 - - - - - - 0,0
24.06.2017 02:00:00 16,2 14,0 - - - - - - 0,0
24.06.2017 01:00:00 16,1 13,7 - - - - - - 0,0
24.06.2017 00:00:00 16,1 13,6 - - - - - - 0,0
23.06.2017 23:00:00 16,3 13,3 - - - - - - 0,0
23.06.2017 22:00:00 16,7 12,9 - - - - - 10 0,0
23.06.2017 21:00:00 17,3 12,8 - - - - - - 0,0
23.06.2017 20:00:00 17,8 12,7 - - - - - - 0,0
23.06.2017 19:00:00 18,4 12,1 - - - - - - 0,0
23.06.2017 18:00:00 18,2 13,4 - - - - - - 0,0
23.06.2017 17:00:00 18,3 13,8 - - - - - - 0,0
23.06.2017 16:00:00 18,0 13,5 - - - - - - 0,0
23.06.2017 15:00:00 18,1 13,3 - - - - - - 0,0
23.06.2017 14:00:00 18,7 13,1 - - - - - - 0,0
23.06.2017 13:00:00 18,3 12,8 - - - - - - 0,0
23.06.2017 12:00:00 18,1 12,4 - - - - - - 0,0
23.06.2017 11:00:00 19,0 12,6 - - - - - - 0,0
23.06.2017 10:00:00 17,7 12,5 20,2 15,4 86 47 N 30 0,0

tt = temperature
td = dewpoint
tt -20cm = temperature -20cm
tt -100cm = temperature -100cm
ff = wind speed
dd = wind direction
vv = visibility
rr = precipitation

Next stations